Temp
-12 -11 -11 -11 -11 -11 -11 -10 -10 -10 -10 -10 -10 -10 -10 -10 -10 -10 -10 -10 -10 -10 -10 -10 -10 -10 -10 -10 -10 -10 -10 -10 -10 -10 -10 -10 -10 -10 -10 -10 -10 -10 -10 -10 -10
-12 -12 -11 -11 -11 -11 -11 -11 -11 -10 -10 -10 -10 -10 -10 -10 -10 -10 -10 -10 -10 -10 -10 -10 -10 -10 -10 -10 -10 -10 -10 -10 -10 -10 -10 -10 -10 -10 -10 -10 -10 -10 -10 -10 -11
-13 -12 -12 -11 -11 -11 -11 -11 -10 -10 -10 -10 -10 -10 -10 -10 -10 -10 -10 -10 -10 -11 -11 -11 -11 -11 -11 -11 -10 -10 -10 -10 -10 -10 -10 -10 -10 -10 -10 -10 -10 -10 -10 -10 -10
-13 -13 -13 -12 -12 -11 -11 -11 -11 -11 -11 -10 -10 -10 -10 -10 -10 -10 -10 -10 -11 -11 -11 -11 -11 -11 -11 -11 -11 -10 -10 -10 -10 -10 -10 -10 -10 -10 -10 -10 -10 -10 -10 -10 -11
-13 -13 -13 -13 -12 -12 -11 -11 -11 -11 -11 -10 -10 -10 -11 -10 -10 -10 -10 -11 -11 -11 -11 -11 -11 -11 -11 -11 -11 -10 -10 -10 -10 -10 -10 -10 -10 -10 -10 -10 -10 -10 -10 -10 -10
-14 -13 -13 -13 -13 -12 -12 -11 -11 -11 -11 -11 -10 -11 -11 -10 -11 -10 -11 -11 -11 -11 -11 -11 -11 -11 -11 -11 -11 -11 -10 -10 -10 -10 -10 -10 -10 -10 -10 -10 -10 -10 -10 -10 -10
-15 -15 -14 -13 -13 -13 -13 -12 -11 -11 -11 -11 -11 -11 -11 -11 -11 -11 -11 -11 -11 -11 -11 -11 -11 -11 -11 -11 -11 -11 -11 -10 -10 -10 -10 -10 -10 -10 -10 -10 -10 -10 -10 -10 -10
-16 -15 -15 -14 -14 -13 -13 -13 -12 -12 -11 -11 -11 -11 -11 -11 -11 -11 -11 -11 -11 -11 -11 -11 -11 -11 -11 -11 -11 -11 -11 -11 -11 -10 -10 -10 -10 -10 -10 -10 -10 -10 -10 -10 -10
-16 -15 -15 -15 -15 -14 -14 -13 -13 -12 -12 -11 -11 -11 -11 -11 -11 -11 -11 -11 -11 -11 -11 -11 -11 -11 -11 -11 -11 -11 -11 -11 -11 -11 -10 -10 -10 -10 -10 -10 -10 -10 -10 -10 -10
-16 -16 -16 -16 -15 -15 -14 -14 -14 -13 -12 -12 -12 -11 -11 -12 -11 -11 -11 -11 -11 -11 -11 -11 -11 -11 -11 -11 -11 -11 -11 -11 -11 -11 -10 -10 -10 -10 -10 -10 -10 -10 -10 -10 -10
-16 -16 -15 -16 -16 -16 -15 -15 -15 -14 -13 -13 -12 -12 -12 -12 -12 -12 -12 -11 -11 -11 -11 -11 -11 -11 -11 -11 -11 -11 -11 -11 -11 -11 -10 -10 -10 -10 -10 -10 -10 -10 -10 -10 -10
-16 -16 -15 -16 -16 -15 -15 -16 -15 -14 -14 -14 -13 -12 -12 -13 -12 -12 -12 -12 -11 -11 -11 -11 -11 -12 -11 -11 -11 -11 -11 -11 -11 -11 -10 -10 -10 -10 -10 -10 -10 -10 -11 -11 -11
-17 -16 -16 -16 -16 -16 -16 -15 -16 -15 -14 -14 -14 -13 -13 -13 -13 -12 -12 -12 -12 -11 -11 -11 -11 -12 -11 -11 -11 -11 -11 -11 -11 -11 -11 -10 -10 -10 -10 -10 -10 -11 -11 -11 -11
-17 -17 -17 -17 -16 -16 -16 -16 -15 -15 -15 -13 -14 -13 -13 -13 -13 -13 -13 -12 -12 -12 -12 -11 -11 -11 -12 -11 -12 -11 -12 -11 -11 -11 -11 -10 -10 -10 -10 -10 -10 -11 -11 -11 -11
-17 -17 -17 -17 -16 -17 -16 -16 -16 -16 -16 -15 -14 -13 -13 -13 -12 -13 -13 -14 -12 -13 -13 -11 -12 -12 -12 -12 -13 -12 -12 -12 -12 -12 -11 -10 -11 -9 -10 -9 -10 -11 -11 -12 -12
-18 -17 -17 -17 -17 -17 -17 -16 -16 -16 -16 -14 -14 -13 -14 -13 -13 -13 -14 -14 -13 -14 -13 -12 -12 -12 -12 -12 -13 -12 -12 -12 -12 -12 -11 -10 -11 -9 -9 -10 -10 -11 -12 -11 -11
-19 -18 -18 -17 -17 -17 -18 -17 -17 -17 -16 -15 -14 -14 -14 -14 -14 -14 -14 -14 -14 -14 -13 -13 -12 -12 -12 -12 -13 -13 -13 -13 -13 -12 -11 -11 -11 -9 -9 -10 -10 -11 -11 -11 -11
-20 -19 -18 -18 -18 -18 -18 -18 -17 -16 -16 -16 -15 -15 -14 -15 -14 -14 -14 -14 -14 -14 -13 -13 -13 -13 -12 -13 -13 -13 -13 -13 -12 -12 -11 -11 -10 -9 -9 -10 -10 -11 -11 -11 -11
-20 -20 -19 -19 -19 -19 -19 -19 -17 -16 -17 -16 -16 -16 -15 -15 -14 -15 -15 -14 -14 -14 -14 -14 -14 -13 -13 -14 -14 -13 -13 -13 -13 -13 -12 -10 -10 -10 -10 -10 -10 -10 -11 -12 -11
-22 -21 -20 -20 -20 -20 -20 -19 -18 -17 -16 -17 -17 -17 -16 -16 -16 -15 -15 -14 -14 -15 -15 -15 -14 -14 -14 -14 -14 -13 -13 -13 -13 -13 -12 -11 -10 -10 -10 -10 -10 -10 -11 -12 -12
-22 -22 -22 -22 -21 -20 -20 -19 -18 -18 -18 -18 -17 -18 -17 -17 -17 -17 -16 -15 -15 -15 -16 -15 -15 -14 -14 -13 -13 -14 -13 -14 -14 -14 -13 -12 -10 -10 -10 -11 -10 -11 -11 -11 -12
-22 -22 -22 -22 -22 -21 -20 -19 -19 -18 -18 -18 -18 -17 -17 -17 -18 -18 -17 -16 -17 -17 -17 -16 -16 -14 -14 -14 -14 -14 -13 -14 -14 -13 -14 -13 -10 -10 -10 -11 -11 -11 -11 -12 -12
-22 -22 -22 -22 -23 -22 -21 -20 -20 -19 -19 -19 -19 -18 -18 -17 -18 -18 -17 -17 -17 -18 -17 -17 -17 -16 -15 -14 -13 -13 -13 -14 -14 -14 -13 -13 -10 -10 -11 -11 -11 -11 -12 -13 -13
-23 -23 -22 -22 -22 -22 -22 -21 -21 -20 -20 -20 -19 -20 -19 -18 -17 -17 -17 -17 -18 -18 -18 -17 -17 -17 -15 -15 -15 -15 -15 -15 -16 -16 -12 -14 -10 -11 -11 -12 -12 -13 -13 -13 -13
-23 -23 -23 -22 -22 -22 -22 -22 -21 -21 -21 -20 -20 -20 -19 -19 -18 -18 -17 -17 -18 -18 -18 -17 -17 -17 -17 -17 -16 -16 -15 -15 -15 -13 -15 -11 -14 -10 -12 -12 -12 -13 -13 -13 -13
-25 -24 -23 -23 -23 -23 -23 -22 -22 -21 -21 -21 -21 -20 -20 -20 -20 -19 -18 -18 -18 -18 -18 -18 -18 -18 -17 -17 -18 -17 -17 -15 -14 -14 -15 -12 -12 -11 -12 -13 -13 -14 -14 -14 -13
-26 -26 -25 -23 -24 -24 -22 -22 -22 -22 -22 -21 -21 -21 -21 -20 -20 -20 -20 -19 -19 -18 -18 -19 -18 -19 -18 -17 -18 -18 -15 -15 -16 -15 -15 -14 -12 -13 -13 -13 -14 -14 -13 -13 -13
Height
5786 5790 5795 5799 5803 5807 5810 5813 5815 5818 5820 5823 5825 5827 5831 5832 5835 5839 5841 5844 5844 5845 5848 5850 5852 5854 5855 5858 5860 5862 5864 5866 5866 5867 5868 5868 5869 5868 5868 5867 5867 5866 5866 5867 5866
5779 5783 5788 5792 5797 5801 5804 5808 5811 5814 5816 5819 5822 5824 5826 5829 5833 5836 5838 5840 5841 5843 5845 5848 5849 5851 5854 5856 5858 5860 5862 5863 5865 5865 5866 5866 5867 5867 5867 5866 5866 5865 5865 5865 5865
5772 5777 5781 5785 5789 5795 5798 5803 5806 5810 5813 5816 5818 5820 5823 5826 5829 5831 5834 5836 5838 5840 5842 5845 5847 5849 5851 5853 5856 5858 5860 5861 5862 5863 5863 5864 5864 5864 5864 5865 5864 5864 5864 5864 5863
5763 5769 5774 5778 5782 5787 5792 5797 5801 5805 5809 5811 5815 5817 5820 5823 5826 5828 5831 5833 5835 5837 5839 5842 5844 5846 5849 5851 5853 5855 5857 5858 5860 5860 5861 5862 5862 5862 5862 5862 5862 5862 5862 5862 5862
5757 5760 5765 5771 5776 5779 5784 5789 5794 5798 5802 5806 5810 5813 5816 5819 5822 5824 5827 5830 5831 5833 5837 5839 5841 5844 5846 5848 5850 5853 5854 5855 5856 5857 5858 5859 5860 5860 5859 5859 5859 5859 5859 5859 5859
5751 5755 5758 5763 5768 5772 5777 5781 5785 5790 5795 5800 5804 5808 5811 5815 5818 5821 5824 5826 5828 5831 5833 5835 5838 5841 5843 5845 5847 5849 5851 5852 5853 5854 5855 5856 5857 5856 5855 5856 5856 5856 5856 5856 5856
5744 5748 5752 5756 5760 5766 5770 5774 5779 5783 5787 5792 5797 5802 5805 5810 5813 5817 5819 5821 5824 5827 5829 5832 5834 5837 5840 5842 5844 5846 5847 5848 5849 5850 5852 5852 5854 5851 5853 5853 5853 5852 5852 5852 5852
5735 5740 5744 5748 5753 5758 5762 5768 5772 5775 5780 5784 5789 5794 5798 5803 5807 5811 5814 5817 5820 5823 5826 5828 5830 5833 5835 5838 5840 5842 5843 5844 5845 5846 5847 5848 5850 5847 5848 5849 5850 5849 5849 5848 5847
5728 5732 5736 5740 5744 5749 5753 5759 5764 5769 5771 5775 5781 5786 5792 5795 5800 5804 5807 5810 5815 5818 5820 5823 5826 5829 5831 5833 5836 5837 5837 5839 5841 5842 5842 5842 5846 5842 5842 5844 5845 5845 5844 5843 5842
5720 5724 5728 5731 5736 5740 5745 5750 5754 5759 5764 5768 5772 5778 5784 5789 5792 5797 5800 5804 5808 5812 5815 5818 5821 5824 5827 5829 5830 5829 5833 5835 5835 5837 5835 5836 5840 5838 5837 5839 5840 5840 5839 5838 5836
5712 5716 5719 5724 5728 5732 5737 5740 5745 5750 5754 5760 5766 5769 5773 5778 5783 5788 5792 5796 5800 5804 5807 5811 5814 5819 5821 5820 5823 5825 5827 5828 5829 5829 5828 5829 5832 5835 5831 5834 5835 5834 5833 5831 5829
5701 5705 5711 5715 5719 5723 5727 5730 5734 5739 5744 5749 5755 5762 5764 5769 5774 5778 5784 5789 5792 5796 5799 5803 5806 5811 5813 5814 5817 5819 5820 5822 5822 5821 5819 5821 5823 5828 5828 5828 5829 5829 5827 5824 5823
5690 5696 5701 5707 5709 5714 5716 5720 5724 5728 5732 5741 5745 5751 5756 5760 5765 5770 5774 5778 5783 5786 5790 5793 5798 5802 5804 5806 5810 5812 5812 5812 5812 5812 5813 5812 5811 5819 5823 5823 5824 5823 5821 5817 5815
5681 5686 5691 5695 5703 5705 5709 5711 5715 5719 5718 5731 5736 5740 5746 5751 5756 5762 5764 5769 5772 5778 5779 5784 5789 5794 5798 5801 5800 5803 5803 5802 5804 5804 5806 5805 5793 5809 5815 5818 5818 5817 5813 5810 5807
5668 5674 5680 5686 5691 5695 5700 5703 5706 5708 5705 5716 5723 5731 5737 5741 5751 5755 5757 5759 5764 5768 5771 5780 5781 5783 5787 5792 5790 5794 5794 5795 5795 5795 5796 5793 5789 5797 5804 5809 5812 5810 5806 5801 5797
5655 5662 5668 5673 5679 5686 5687 5692 5696 5696 5689 5700 5710 5719 5725 5731 5735 5741 5746 5749 5754 5756 5760 5766 5769 5774 5778 5781 5782 5785 5785 5785 5785 5786 5786 5782 5783 5789 5794 5795 5799 5801 5795 5789 5789
5643 5649 5656 5661 5667 5671 5675 5678 5678 5678 5690 5692 5697 5706 5712 5717 5722 5728 5733 5739 5743 5746 5751 5755 5760 5764 5768 5770 5772 5774 5776 5775 5774 5775 5778 5772 5769 5779 5787 5785 5788 5790 5786 5781 5781
5629 5636 5642 5649 5653 5657 5661 5666 5658 5672 5681 5687 5686 5688 5695 5702 5709 5714 5719 5724 5731 5736 5739 5742 5747 5753 5759 5761 5761 5762 5765 5766 5762 5764 5770 5765 5759 5762 5775 5777 5777 5776 5778 5775 5773
5615 5621 5630 5633 5638 5642 5643 5642 5647 5668 5672 5675 5675 5676 5681 5687 5695 5702 5706 5714 5719 5725 5728 5728 5732 5740 5746 5746 5748 5751 5752 5757 5752 5754 5752 5753 5757 5753 5761 5767 5767 5765 5768 5768 5765
5602 5607 5617 5615 5620 5625 5626 5628 5640 5652 5662 5665 5662 5665 5671 5676 5680 5685 5692 5703 5708 5713 5713 5714 5716 5725 5728 5732 5734 5736 5741 5740 5740 5741 5741 5744 5742 5745 5748 5752 5754 5755 5756 5755 5756
5591 5595 5601 5601 5602 5604 5607 5620 5635 5638 5642 5646 5655 5655 5660 5664 5669 5673 5679 5689 5693 5698 5698 5701 5702 5708 5711 5716 5722 5724 5726 5728 5728 5728 5728 5731 5735 5742 5740 5740 5740 5742 5745 5744 5744
5578 5583 5587 5586 5586 5589 5598 5616 5625 5625 5629 5633 5638 5647 5651 5654 5653 5658 5666 5675 5676 5679 5680 5689 5685 5692 5698 5700 5704 5706 5712 5712 5710 5715 5717 5722 5724 5731 5731 5727 5730 5729 5733 5735 5734
5563 5569 5572 5571 5572 5580 5592 5599 5603 5608 5615 5618 5623 5632 5643 5639 5638 5645 5655 5664 5662 5664 5668 5673 5670 5676 5678 5684 5686 5688 5694 5697 5698 5701 5706 5706 5715 5720 5719 5719 5719 5719 5719 5721 5723
5547 5551 5557 5556 5564 5569 5576 5583 5584 5595 5597 5602 5611 5617 5622 5625 5629 5634 5642 5648 5652 5653 5657 5658 5655 5660 5666 5672 5674 5676 5680 5682 5684 5684 5692 5691 5702 5708 5706 5707 5708 5706 5705 5704 5706
5528 5538 5539 5543 5552 5554 5558 5564 5569 5577 5583 5589 5592 5599 5607 5608 5614 5619 5629 5635 5636 5641 5642 5640 5642 5648 5654 5655 5657 5658 5662 5664 5666 5676 5669 5687 5683 5696 5694 5692 5687 5691 5694 5694 5695
5511 5520 5522 5529 5532 5534 5539 5548 5555 5565 5569 5576 5574 5590 5592 5594 5604 5607 5614 5615 5619 5624 5624 5625 5626 5633 5637 5645 5643 5641 5645 5652 5653 5656 5653 5666 5667 5689 5685 5681 5680 5679 5679 5680 5680
5494 5500 5502 5507 5513 5512 5526 5537 5540 5544 5549 5558 5562 5567 5571 5583 5583 5589 5596 5600 5603 5607 5611 5611 5614 5618 5618 5632 5625 5620 5639 5641 5642 5646 5648 5647 5663 5670 5665 5660 5663 5665 5668 5666 5665
Wind_Speed
45 44 42 39 37 35 33 31 29 27 25 24 22 22 23 21 21 23 22 22 20 20 20 21 21 21 20 17 16 14 11 10 9 7 5 6 6 7 8 8 8 7 7 7 7
45 46 45 42 40 37 35 32 31 29 27 26 25 24 23 23 24 24 24 23 22 20 21 21 21 20 20 19 17 15 14 13 11 10 9 9 9 7 8 10 10 10 9 9 9
42 45 47 45 43 40 37 35 33 32 31 30 27 26 26 26 25 25 26 26 23 23 22 22 21 21 21 20 19 17 17 16 14 13 12 12 11 10 10 10 12 12 11 11 12
38 42 44 47 45 43 40 38 36 34 34 32 31 30 29 28 27 28 27 26 25 24 23 24 23 22 22 21 20 20 19 17 16 14 13 12 12 13 14 14 13 13 13 12 13
35 40 45 45 46 46 44 42 39 37 36 35 34 32 32 30 30 29 29 28 27 25 25 24 23 23 23 22 22 21 20 18 17 16 14 13 14 14 16 14 13 12 14 14 15
35 37 42 45 47 47 47 45 43 41 39 38 37 36 34 33 33 32 31 29 28 27 27 25 25 24 24 24 22 21 20 19 20 17 15 14 13 14 16 15 15 16 15 17 18
39 36 39 44 46 48 48 49 47 45 43 42 41 39 37 36 36 36 34 31 30 30 29 27 26 26 25 25 23 22 21 20 21 19 16 16 12 17 16 15 15 17 17 19 20
38 42 40 39 42 47 49 49 50 49 47 46 44 42 41 40 40 39 37 35 34 33 31 29 28 28 26 26 24 23 22 23 22 19 18 19 12 19 18 17 17 18 21 23 25
39 38 45 41 40 42 46 49 51 51 51 50 48 46 44 43 44 43 41 39 37 36 33 32 31 29 28 27 25 23 26 24 22 22 24 24 17 24 22 19 18 21 24 25 27
40 41 41 48 43 42 43 45 48 52 52 51 50 49 47 46 46 46 44 42 41 39 37 36 35 33 30 27 28 30 28 25 26 26 29 29 23 26 27 24 22 23 28 30 31
40 44 41 43 47 51 46 44 46 50 51 52 51 51 50 49 50 50 49 47 45 44 42 40 39 36 31 35 34 31 31 30 29 31 34 34 31 28 32 27 24 28 31 30 30
42 34 36 43 45 46 55 50 49 50 51 52 53 52 52 51 52 53 52 50 49 47 46 46 44 38 39 39 37 35 34 34 33 35 40 38 38 32 32 31 28 30 31 33 32
51 45 44 43 40 43 45 57 54 53 54 51 53 54 54 54 54 55 55 54 53 52 50 50 48 44 43 42 40 38 37 37 39 39 41 43 45 38 33 33 31 30 32 35 35
55 53 49 46 53 40 43 42 57 60 59 56 54 55 55 56 58 57 57 57 56 54 54 54 50 47 44 42 43 42 41 42 42 43 42 44 55 42 38 34 34 33 35 37 38
57 55 51 49 51 48 45 42 50 50 67 65 57 57 57 58 57 55 57 57 57 55 54 53 51 49 48 45 45 45 44 44 45 45 46 51 53 48 43 38 35 35 33 37 38
56 56 54 53 55 52 52 55 43 40 40 67 68 61 58 58 60 60 57 58 59 57 57 57 56 53 50 48 47 47 47 47 46 47 51 55 54 50 45 44 37 39 36 40 44
54 57 58 56 55 53 53 54 47 51 45 50 63 67 64 59 60 61 60 60 59 57 60 59 57 56 53 52 50 48 47 47 49 51 52 56 60 54 46 48 46 40 31 31 37
53 55 58 59 58 56 55 44 56 48 49 55 54 59 67 70 59 61 62 61 61 62 61 60 61 58 56 53 52 49 47 49 53 54 54 57 63 60 49 45 47 34 28 31 35
57 55 56 57 59 56 54 61 69 60 39 57 54 53 56 63 72 68 60 61 60 61 60 60 61 60 56 54 51 53 54 52 52 55 60 65 61 60 53 48 46 40 32 27 31
45 51 55 57 60 60 58 58 61 61 60 51 54 58 56 56 60 64 68 67 63 60 59 59 62 62 60 59 58 58 57 55 57 58 61 67 67 62 60 54 42 42 39 41 32
45 46 46 51 60 64 67 64 64 62 64 61 58 53 60 56 53 58 64 69 69 68 64 64 66 69 67 67 65 63 63 64 63 63 64 68 67 62 61 57 55 50 46 39 33
50 48 47 49 55 61 66 60 61 61 62 67 62 59 56 53 51 52 56 59 56 56 53 61 67 75 73 73 71 70 70 71 71 70 67 66 61 58 60 59 51 48 40 32 33
52 51 53 55 56 56 55 58 60 64 64 60 56 57 56 57 59 57 57 49 49 46 49 47 55 63 70 74 79 79 72 67 67 67 71 71 62 61 60 57 54 52 50 47 42
58 57 56 59 58 57 56 56 58 60 66 66 63 46 48 63 60 60 57 55 50 46 43 42 47 49 59 62 63 65 63 60 58 60 71 65 54 52 54 55 55 54 55 55 50
62 61 62 63 60 60 61 62 60 58 62 67 69 67 65 66 64 69 64 57 56 53 52 54 57 51 45 52 55 59 61 63 65 65 65 56 58 44 51 55 59 54 52 49 43
65 62 63 62 64 65 65 63 64 59 59 61 69 66 62 66 63 60 64 66 62 58 60 63 61 53 57 50 53 58 59 63 66 66 66 68 66 50 51 52 52 52 51 50 51
63 63 62 66 64 68 66 64 64 65 66 61 63 67 70 62 54 64 62 63 59 68 65 68 67 64 64 57 59 63 59 61 61 60 60 63 59 53 56 58 53 52 54 57 59
Wind_Direction
220 221 222 223 223 224 223 222 220 220 220 223 223 223 224 225 225 224 223 221 220 220 220 219 216 217 217 220 221 223 222 228 244 267 290 309 306 311 329 333 319 303 291 288 296
225 223 224 226 226 226 226 227 227 225 225 225 226 226 227 228 231 227 225 224 222 220 219 218 215 215 214 218 223 225 226 233 245 263 284 297 298 293 309 312 314 311 303 293 288
229 227 225 225 227 229 228 229 230 230 229 228 229 229 229 229 231 231 229 224 222 219 215 217 212 211 213 217 224 228 232 237 246 257 276 289 289 294 302 297 302 304 301 291 286
228 231 233 227 227 228 230 230 231 232 232 231 230 231 230 230 232 230 226 222 219 216 215 215 213 212 216 220 227 232 239 247 254 266 275 282 287 291 294 294 294 302 301 293 286
232 229 230 234 232 230 230 232 232 231 234 233 233 234 233 230 228 226 224 218 216 216 217 216 215 216 220 224 230 237 244 250 257 265 270 277 284 290 287 293 302 300 298 293 290
231 234 231 232 234 232 233 232 231 230 232 233 232 233 233 231 226 222 222 219 217 217 218 218 220 223 228 231 233 239 244 251 258 257 261 272 289 285 283 297 300 304 303 302 297
233 232 235 233 232 234 235 232 233 230 229 230 231 233 232 231 226 223 222 220 220 221 222 223 227 228 230 235 237 241 246 249 252 259 264 271 288 277 287 291 301 309 313 310 302
246 236 232 230 235 234 234 236 234 230 230 230 230 231 232 230 226 224 223 224 224 225 226 227 229 231 234 237 239 241 244 248 254 263 268 271 279 281 285 288 297 301 307 311 306
245 248 241 235 230 235 236 235 236 236 230 228 230 231 231 230 226 225 223 225 228 227 228 230 232 233 235 238 240 244 244 251 259 266 270 272 275 279 286 288 293 303 306 308 306
240 241 243 236 239 234 236 239 238 236 236 233 229 229 230 231 228 226 226 226 229 230 231 232 235 236 237 240 241 244 251 254 259 263 267 270 271 276 282 288 294 301 304 305 305
241 242 241 243 241 243 240 237 239 239 237 237 234 231 229 228 229 226 226 227 229 231 233 235 237 239 240 242 246 249 253 257 262 266 266 268 267 271 278 285 290 299 305 303 297
243 238 242 249 245 246 242 242 240 241 240 238 237 235 233 228 228 228 228 230 231 232 234 236 239 238 241 246 250 253 257 261 262 264 265 267 269 268 273 281 287 299 301 299 294
250 246 242 244 246 246 250 243 241 244 243 239 239 238 236 233 229 229 230 230 232 234 236 238 240 240 242 246 251 254 258 261 262 263 267 272 268 268 270 276 283 293 295 292 285
249 253 254 251 243 244 248 255 249 243 245 240 240 239 239 237 233 231 232 233 233 235 238 239 242 244 247 250 252 253 256 260 264 267 269 270 273 267 271 274 282 292 290 287 282
244 246 247 250 243 245 246 246 244 251 247 242 239 240 239 241 238 236 237 237 237 239 241 241 243 245 246 248 251 254 257 261 266 269 270 268 274 277 275 272 280 289 287 280 279
242 241 240 244 251 248 248 234 237 225 229 244 242 239 240 241 241 240 238 241 240 242 242 242 244 246 248 250 254 257 259 262 264 268 268 272 277 274 281 285 287 296 290 271 269
241 237 237 239 245 249 251 248 245 239 230 240 244 244 242 241 239 242 242 241 244 246 245 246 247 249 250 252 253 256 260 265 266 265 270 275 277 277 278 284 292 297 282 274 268
243 239 239 239 239 242 244 233 250 235 236 240 240 244 241 242 241 240 242 244 245 246 248 249 248 249 252 255 258 257 257 259 265 269 270 271 273 280 284 286 293 291 278 274 267
245 241 238 241 242 242 239 238 248 233 242 234 238 244 242 242 243 243 244 244 244 246 250 253 252 252 253 255 256 259 259 260 263 265 268 271 273 279 283 286 283 280 281 273 265
243 242 240 242 241 241 237 237 247 252 245 242 238 242 244 245 244 245 245 244 247 248 250 251 253 251 252 253 254 257 258 257 258 261 266 270 273 277 284 287 274 273 273 287 270
242 241 238 239 241 240 240 241 243 246 247 250 245 242 241 247 249 247 249 248 249 250 252 252 252 251 250 252 254 255 257 259 261 262 264 269 270 276 278 280 278 278 280 280 268
244 243 241 242 244 242 242 243 242 242 245 249 249 246 241 248 252 243 241 247 248 251 253 253 253 252 253 255 255 256 258 259 259 262 265 268 269 273 277 275 277 279 281 272 271
249 245 242 242 245 248 246 243 240 238 238 243 246 246 248 248 253 248 236 240 241 252 252 251 249 253 253 253 254 256 258 260 261 261 266 268 269 271 267 272 276 279 278 277 268
250 249 247 247 247 246 247 244 242 238 238 240 241 236 245 246 250 251 250 247 249 251 246 244 244 248 253 256 254 254 256 257 256 256 265 262 269 265 268 266 269 271 272 274 277
253 248 250 250 249 249 245 244 243 240 239 238 239 237 239 243 243 251 252 253 253 249 246 241 255 248 245 247 248 251 251 251 255 261 257 263 261 255 258 261 265 266 269 274 273
257 256 252 251 249 249 246 244 244 244 243 239 242 240 241 243 240 241 249 254 254 250 249 250 252 250 242 243 248 248 249 255 257 255 254 263 261 265 265 266 264 266 268 267 269
258 259 257 251 249 248 247 246 245 244 241 241 241 239 237 230 238 241 245 249 250 250 254 256 254 254 252 246 255 254 252 257 258 259 261 260 265 261 257 258 259 261 262 264 266